Weather in Neustift Im Stubaital

Austria     47°06′31″N   11°18′20″E
temp.,
°C
wind,
m/s
gust,
m/s
humid.,
%
clouds,
%
prec.,
mm/h
press.,
hPa
HPBL,
m
19 january, tue
tue1901:00−13w234620 0.0 102921
04:00−12w224852 0.0 102721
07:00−11wsw335676 0.0 102621
10:00−6sw336156 0.0 102441
13:00−3s346531 0.0 1021256
16:00−6ssw228173 0.0 102023
19:00−7sw235484 0.0 102121
22:00−7sw3343100 0.0 102122
20 january, wed
wed2001:00−8sw3345100 0.0 102122
04:00−9sw444581 0.0 102022
07:00−10ssw444870 0.0 102024
10:00−7ssw556454 0.0 101994
13:00−6s568677 0.0 1016222
16:00−8s669998 0.0 1015227
19:00−8s669699 0.1 1016243
22:00−8s6796100 0.1 1015257
21 january, thu
thu2101:00−8s6795100 0.4 1014220
04:00−9s6696100 0.2 1012142
07:00−9s6696100 0.4 1013148
10:00−7s6695100 0.1 1012267
13:00−5s6695100 0.3 1010438
16:00−5s669699 0.2 1008437
19:00−7s6697100 0.4 1009105
22:00−7s6596100 0.6 1006114
22 january, fri
fri2201:00−7s5596100 1.7 1004129
04:00−6s5597100 1.7 1000120
07:00−6s4496100 2.4 100079
10:00−4s4497100 0.7 999232
13:00−3sse2397100 0.9 1000317
16:00−4nne4497100 1.9 1000296
19:00−9n4595100 5.4 1003181
22:00−10nnw4494100 2.4 1005138
23 january, sat
sat2301:00−13nw3387100 2.6 100633
04:00−12nw2276100 0.0 100628
07:00−13w226899 0.0 100621
10:00−8ssw2268100 0.0 100545
13:00−7s3473100 0.0 1004334
16:00−9sse228795 0.0 100421
19:00−11ssw447783 0.0 100531
22:00−13ssw558685 0.0 100343